Location: Sabalos
(43.2860°N, 0.1414°E)
Time: 21:06:47
(UTC+00:00)

MetOp-B - Pass Details

Date: 05 July 2020
Orbit: 819 x 821 km, 98.7° (Epoch: 14 August)

Event Time Altitude Azimuth Distance (km) Brightness Sun altitude
Exits shadow 20:27:50 - 150° (SSE) 2,633 6.2 -7.4°
Reaches altitude 10° 20:28:24 10° 148° (SSE) 2,411 6.0 -7.5°
Maximum altitude 20:33:37 57° 71° (ENE) 961 4.4 -8.2°
Drops below altitude 10° 20:38:52 10° 354° (N) 2,428 7.4 -8.9°
Sets 20:41:16 0° 351° (N) 3,365 8.3 -9.3°
